Showing default

KUIPER-00296, 68595

Orbit data source: Space-Track

KUIPER-00296, 68595 is a payload satellite owned by Kuiper Systems (US) in LEO that was launched on Sat, 04 Apr 2026 UTC via an ATLAS V 551 launch vehicle from the Air Force Eastern Test Range (AFETR). Payload-class satellites include a variety of spacecraft equipped with specific instruments for various scientific and technological missions. These include communications satellites like Starlink; space stations such as the ISS; scientific satellites like the Hubble; Earth observation satellites from companies like Planet Labs, Umbra, and HawkEye 360; GPS; miniature CubeSats for education and research; and military/defense satellites.

Loading next visibility...
Identifier
68595, 2026-072Y
Orbit
LEO
Country
Flag of USUS
Related business
Manufacturer
Kuiper Systems
Mission
Operational spacecraft
Bus & Motor
KUIPER, Unknown motor
Mass
~490 kg wet, ~490 kg dry
Launch date (UTC)
2026-04-04 (2 months ago)
Launch vehicle
ATLAS V 551
Launch site
Air Force Eastern Test Range (AFETR)
Object type
Payload
Rocket body
Debris
Shape & HBR
Unknown shape, 3.4 m
Radar Cross Section
Large (>1 m²)

Expand to show TLE details & history
Last TLE update: 1 week ago

TLE from 1 week ago
0 KUIPER-00296
1 68595U 26072Y   26154.57205221  .00029990  00000-0  79914-3 0  9994
2 68595  51.8717 242.9082 0006655 327.2594  32.7980 15.37900527  9282
Epoch: 2026-06-03T13:43Z
TLE epoch observation values (Epoch: 2026-06-03T13:43:45.310Z)
Latitude
-0.00002°
Longitude
144.94064°
Altitude
449.262 km
Speed
7.646 km/s
True Right ascension
16h 11m 37s
True Declination
0° 00' 00"
Sunlit
Object was in full shadow at epoch
Visualization orbit readout
Latitude
Unknown
Longitude
Unknown
Altitude
Unknown
Speed
Unknown
Apparent Right ascension
Unknown
Apparent Declination
Unknown
Sunlit
N/A
Visualization observer readout
Local Sidereal Time
03:30:42
Azimuth
Unknown
Elevation
Unknown
Doppler factor
Unknown
Orbital elements
Apogee altitude
457.332 km
Perigee altitude
448.24 km
Semi-major axis
6,830.923 km
Eccentricity
0.00067
Inclination
51.8717°
RAAN
242.9082°
Arg. of periapsis
327.2594°
True anomaly
32.83934°
Mean anomaly
32.798°
Eccentric anomaly
32.81867°
Mean motion
3.84436 °/min
Orbital period
93.64 mins
BSTAR
0.00079914
Loading maneuver chart data...
Computing Atmospheric mass density...
Loading historical data...
Loading historical data...
Loading historical data...
Loading historical data...
Loading historical data...
Loading historical data...
Loading historical data...

Documentation

Showing up to 5 results
|